Lid_Strength_Index
1 3 3 4 9 10 12 11 8 8 8 6 5 6 8 7 9 12 2 1 0 0 -1 -1 -1 -2 -2 -2 -2 -2 -2 -2 -2 -2 -2 -2 -2 -2 -2 -2 -2 -2 -2 -2 -2 -2 -2 -2 -2
2 3 4 5 11 14 12 9 9 8 6 5 6 6 7 9 5 4 3 0 0 -0 -0 -1 -1 -2 -2 -2 -2 -2 -2 -2 -2 -2 -2 -2 -2 -2 -2 -2 -2 -2 -2 -2 -2 -2 -2 -2 -2
2 3 7 8 11 13 12 9 8 7 6 6 7 6 6 7 4 3 1 0 -0 0 -1 -1 -1 -2 -2 -2 -2 -2 -2 -2 -2 -2 -2 -2 -2 -2 -2 -2 -3 -2 -2 -2 -2 -2 -2 -2 -2
4 5 6 10 12 9 10 8 7 7 6 5 6 8 5 3 3 2 0 0 1 -0 -0 -1 -1 -2 -2 -2 -2 -2 -3 -2 -2 -2 -2 -2 -2 -2 -2 -2 -3 -2 -2 -2 -2 -2 -2 -2 -2
4 5 9 11 11 9 9 8 6 7 7 6 6 8 7 3 1 1 1 0 1 0 -0 -1 -1 -1 -2 -2 -2 -2 -2 -2 -2 -2 -2 -2 -2 -2 -2 -3 -2 -2 -2 -2 -2 -2 -2 -2 -2
6 6 11 13 10 9 9 8 7 7 6 6 7 8 7 2 2 1 1 1 0 0 -0 -1 0 -1 -1 -1 -2 -2 -2 -2 -2 -2 -2 -2 -1 -2 -2 -2 -2 -2 -2 -2 -2 -2 -2 -2 -2
7 9 11 10 10 9 8 7 8 7 7 7 6 9 6 4 2 1 1 0 0 -0 -0 -0 -0 -0 0 -1 -1 -2 -2 -2 -2 -3 -2 -2 -2 -2 -2 -2 -2 -2 -2 -2 -1 -1 -1 -1 -2
6 7 10 10 11 10 7 7 6 7 7 5 5 9 8 4 2 1 1 1 1 1 1 0 -0 -0 -0 -0 0 -0 -1 -2 -2 -2 -2 -1 -1 -1 -1 -1 -1 -2 -2 -1 -1 -1 -1 -1 -1
5 10 11 10 10 9 6 7 6 6 6 6 5 5 4 2 2 2 2 2 1 1 1 1 0 0 -0 -0 1 1 -0 -1 -1 -0 0 1 0 1 1 -0 -1 -2 -2 -1 -1 -1 -2 -1 -1
8 10 9 7 7 8 7 8 7 7 7 7 6 4 3 3 3 4 3 3 2 2 1 1 1 1 -0 -1 -0 -0 -0 -0 -0 0 1 0 1 1 0 1 -0 -1 -1 -2 -1 -1 -1 0 1
7 9 7 7 7 7 7 8 7 8 8 7 6 5 4 4 4 4 3 3 2 2 1 1 1 1 0 -0 -0 0 -0 0 1 1 1 1 0 1 1 1 1 1 1 0 -0 0 1 1 1
8 6 6 6 7 8 8 7 7 8 7 6 5 4 4 4 4 4 3 3 2 2 2 1 1 1 1 -0 -0 0 -0 -0 1 1 1 1 1 1 2 1 2 1 2 1 1 1 1 1 0
8 7 6 6 7 8 6 8 8 7 6 6 5 4 4 4 4 3 3 2 2 2 2 2 2 1 1 1 0 -0 -0 -0 0 1 0 0 1 1 1 1 2 1 1 1 1 1 1 1 0
6 7 6 6 6 6 8 8 7 8 6 7 6 6 5 4 4 3 3 3 2 2 2 1 1 1 1 1 0 0 -0 -0 0 1 1 0 1 1 1 1 2 2 2 2 1 1 1 1 1
6 9 7 7 6 7 7 9 9 6 6 7 7 6 5 5 4 3 3 3 2 2 2 1 1 1 1 1 0 0 -0 -0 1 1 1 1 1 1 2 2 2 2 2 2 1 1 1 1 0
9 9 12 8 7 7 7 12 8 6 7 7 7 7 6 6 5 4 2 2 2 2 1 1 1 1 1 1 1 0 0 0 0 1 1 1 1 1 2 2 2 2 2 1 1 1 1 1 1
11 14 13 11 7 7 9 12 7 6 7 7 7 7 6 6 5 4 3 2 2 1 1 1 1 1 1 1 1 1 1 0 1 1 1 1 1 1 1 2 2 2 2 2 1 1 2 1 1
15 14 12 12 9 9 10 10 8 6 6 7 7 6 6 6 6 4 3 2 2 2 1 1 1 1 1 1 1 1 1 0 0 1 1 1 1 1 1 2 2 2 2 2 1 1 1 2 1
12 13 14 11 8 10 11 10 8 7 7 7 7 7 6 6 4 6 4 3 2 2 2 2 1 1 1 1 1 2 2 1 1 0 1 1 1 0 1 1 1 2 3 2 1 1 2 2 1
12 13 13 11 9 10 11 11 8 8 7 7 7 7 7 7 5 4 6 5 3 2 2 2 2 1 1 1 1 1 1 1 1 0 1 1 1 1 1 1 1 1 2 2 2 2 2 3 1
12 13 13 13 11 10 11 13 11 8 7 6 6 5 5 6 7 6 4 6 4 2 2 2 2 1 1 1 1 1 1 2 2 2 1 1 1 1 1 1 1 1 1 2 1 2 3 4 2
15 10 11 12 14 17 11 19 12 10 9 8 7 6 6 6 5 5 5 5 6 3 2 2 2 1 1 1 1 2 2 3 2 1 1 1 1 1 1 1 1 1 1 1 2 2 2 3 3
12 9 11 12 14 14 14 17 14 11 11 10 8 7 6 6 6 6 6 5 5 5 4 2 2 1 1 1 1 2 2 2 1 1 1 1 1 0 1 1 2 2 1 1 1 2 2 2 2
8 11 11 12 14 19 15 15 15 12 11 9 8 7 7 6 7 7 6 6 6 5 3 3 2 2 1 1 1 1 2 2 2 2 2 1 1 1 1 1 1 1 2 1 1 1 2 2 1
10 13 19 20 20 20 13 15 13 11 9 9 9 8 7 7 7 7 7 7 6 5 5 3 3 3 2 2 1 1 1 2 2 2 2 2 2 1 1 1 1 2 1 1 1 1 1 2 2
12 13 18 22 21 19 15 17 14 9 9 8 8 8 8 8 8 8 8 7 7 6 5 4 4 3 3 2 2 1 1 1 1 1 1 1 1 1 1 1 1 1 1 1 1 1 1 2 2
13 15 11 16 19 19 16 13 11 10 10 9 9 8 9 9 9 9 9 8 8 8 6 6 4 4 3 2 2 2 1 1 1 1 1 1 1 1 2 1 1 1 1 1 1 1 2 2 2
11 10 16 16 21 22 18 16 15 12 11 9 9 10 9 9 10 9 9 9 8 8 7 7 6 5 4 3 2 2 1 1 1 1 2 2 1 1 2 2 2 1 1 1 1 2 2 2 2
13 14 13 14 16 20 20 17 10 10 9 10 9 9 10 10 9 9 9 9 8 9 8 8 8 7 6 4 3 3 2 2 2 1 1 2 2 1 2 2 2 2 2 2 2 1 2 2 2
10 12 13 17 19 16 17 17 8 9 9 8 8 8 9 10 9 8 8 8 7 8 8 9 9 8 7 6 4 3 3 2 2 2 2 1 2 2 2 2 2 2 2 1 1 2 2 3 3